Regional Weather Roundup
Issued by NWS Kansas City/Pleasant Hill, MO

Home | Current Version | Previous Version | Text Only | Print | Product List | Glossary On
Versions: 1 2 3 4 5 6 7 8 9 10 11 12 13 14 15 16 17 18 19 20 21 22 23 24 25 26 27 28 29 30 31 32 33 34 35 36 37 38 39 40 41 42 43 44 45 46 47 48 49 50
818
ASUS43 KEAX 211710
RWREAX

WEATHER ROUNDUP FOR EASTERN KANSAS AND NORTHWEST MISSOURI
NATIONAL WEATHER SERVICE KANSAS CITY/PLEASANT HILL MO
1100 AM CST WED FEB 21 2018

KSZ040-057-103>105-MOZ028-029-037-043-211800-
...KANSAS CITY METROPOLITAN AREA...

CITY           SKY/WX    TMP DP  RH WIND       PRES   REMARKS
K.C. INTL      CLOUDY    20  14  77 N12       30.59S WCI   8
K.C. DOWNTOWN  CLOUDY    23  14  68 N12       30.60F WCI  12
LEES SUMMIT    CLOUDY    21  17  84 N15       30.57F WCI   8
OLATHE - IXD   MOSUNNY   20  16  84 N14       30.57F WCI   7
OLATHE - OJC   MOSUNNY   20  16  84 N13       30.55F WCI   7
LAWRENCE       CLOUDY    22  16  78 N9        30.59F WCI  12

$$

MOZ001>008-011>017-020>025-030>033-038>040-044>046-053-054-211800-
...NORTHERN AND CENTRAL MISSOURI...

CITY           SKY/WX    TMP DP  RH WIND       PRES   REMARKS
ST. JOSEPH     MOSUNNY   20  14  77 N10       30.63F WCI   9
MOSBY          CLOUDY    21  18  86 N8        30.61F WCI  12
WARRENSBURG    CLOUDY    23  21  93 N7        30.58S WCI  15
WHITEMAN AFB   PTSUNNY   24  19  81 N12       30.52R WCI  13
CLINTON        CLOUDY    25  19  80 CALM      30.56S
SEDALIA        CLOUDY    25  23  92 N13       30.58R WCI  14
WARSAW         NOT AVBL
CHILLICOTHE      N/A     21  16  81 N8        30.63R WCI  11
KIRKSVILLE     CLOUDY    23  18  81 N14       30.59R WCI  11

$$

MOZ041-047>049-056>058-063>065-088>090-097-211800-
...EASTERN AND SOUTHERN MISSOURI...

CITY           SKY/WX    TMP DP  RH WIND       PRES   REMARKS
ST. LOUIS INTL CLOUDY    28  24  85 N14       30.53R WCI  17
SPIRIT OF STL  CLOUDY    29  24  82 NE13      30.53S WCI  19
COLUMBIA       PTSUNNY   26  21  81 N12       30.55R WCI  16
JEFFERSON CITY PTSUNNY   26  20  77 N8        30.57R WCI  18
ROLLA          CLOUDY    25  23  92 N10       30.51R WCI  15
OSAGE BEACH    CLOUDY    25  23  92 VRB5      30.54R WCI  19
SPRINGFIELD    CLOUDY    27  24  89 NE13      30.44F WCI  16
BRANSON        CLOUDY    28  28 100 N5        30.43F FOG     WCI  23
JOPLIN         CLOUDY    25  22  88 N15G22    30.49R WCI  13
WEST PLAINS    CLOUDY    30  28  92 N9        30.46R FOG     WCI  22

$$

IAZ060-094-KSZ022-034>040-054-083-096-NEZ052-066-093-211800-
...KANSAS...SOUTHEAST NEBRASKA AND IOWA...

CITY           SKY/WX    TMP DP  RH WIND       PRES   REMARKS
TOPEKA         CLOUDY    20  14  77 NE15      30.59F WCI   6
MANHATTAN      MOSUNNY   21   9  59 NE12      30.60F WCI   9
EMPORIA        CLOUDY    20  14  77 N17       30.53F WCI   5
CHANUTE        CLOUDY    22  19  89 NE10G18   30.50F WCI  11
WICHITA        CLOUDY    21  13  71 N14       30.53R WCI   8
OMAHA          PTSUNNY   17   8  67 VRB3      30.66F
LINCOLN        CLOUDY    18   3  52 NE6       30.65S WCI  10
FALLS CITY     CLOUDY    18   9  68 NE6       30.63S WCI  10
LAMONI         MOSUNNY   19  12  74 NE10      30.60R WCI   7
DES MOINES     CLOUDY    18   9  68 N13       30.64F WCI   5

$$





USA.gov is the U.S. government's official web portal to all federal, state and local government web resources and services.